Bowling Green, KY

12:46 AM CST on December 16, 2017 (GMT -0600)
Bowling Green-Warren County Regional

Weather History for KBWG - May, 2012

Change the Weather History Date:

Monday, May 7, 2012

  Actual Average Record
Temperature  
Mean Temperature 74 °F 64 °F  
Max Temperature 83 °F 75 °F 92 °F (1940)
Min Temperature 64 °F 52 °F 32 °F (1891)
Degree Days  
Heating Degree Days 0 3  
Month to date heating degree days 0 28  
Since 1 July heating degree days 2950 3997  
Cooling Degree Days 9 2  
Month to date cooling degree days 79 14  
Year to date cooling degree days 208 50  
Growing Degree Days 23 (Base 50)    
Moisture  
Dew Point 64 °F    
Average Humidity 71    
Maximum Humidity 90    
Minimum Humidity 51    
Precipitation  
Precipitation 0.35 in 0.19 in 3.05 in (1984)
Month to date precipitation 1.32 1.29  
Year to date precipitation 15.58 17.61  
Snow  
Snow 0.00 in 0.00 in 0.00 in ()
Month to date snowfall 0.0 0.0  
Since 1 July snowfall 1.4 9.1  
Snow Depth 0.00 in    
Sea Level Pressure  
Sea Level Pressure 29.86 in    
Wind  
Wind Speed 6 mph (South)    
Max Wind Speed 18 mph    
Max Gust Speed 24 mph    
Visibility 8 miles    
Events Rain    
T = Trace of Precipitation, MM = Missing Value Source: NWS Daily Summary

Daily Weather History Graph

Daily Weather History Graph

Search for Another Location

Airport or City:

Trip Planner

Search our weather history database for the weather conditions in past years. The results will help you decide how hot, cold, wet, or windy it might be!

Date:

Astronomy

May. 07, 2012 Rise Set
Actual Time 5:44 AM CDT 7:40 PM CDT
Civil Twilight 5:16 AM CDT 8:08 PM CDT
Nautical Twilight 4:41 AM CDT 8:43 PM CDT
Astronomical Twilight 4:04 AM CDT 9:20 PM CDT
Moon 9:49 PM CDT (5/7) 6:51 AM CDT (5/7)
Length of Visible Light 14h 52m
Length of Day
13h 55m
Waning Gibbous, 96% of the Moon is Illuminated
May 7
Waning Gibbous
May 12
Last Quarter
May 20
New
May 28
First Quarter
Jun 4
Full

Hourly Weather History & Observations

Time (CDT) Temp. Heat Index Dew Point Humidity Pressure Visibility Wind Dir Wind Speed Gust Speed Precip Events Conditions
12:53 AM 69.1 °F - 62.1 °F 78% 29.88 in 10.0 mi SW 3.5 mph - N/A   Clear
1:53 AM 69.1 °F - 61.0 °F 75% 29.86 in 10.0 mi South 4.6 mph - N/A   Clear
2:53 AM 68.0 °F - 61.0 °F 78% 29.86 in 10.0 mi South 3.5 mph - N/A   Clear
3:53 AM 66.0 °F - 61.0 °F 84% 29.87 in 10.0 mi Calm Calm - N/A   Scattered Clouds
4:53 AM 66.0 °F - 60.1 °F 81% 29.88 in 10.0 mi ESE 3.5 mph - N/A   Clear
5:53 AM 64.9 °F - 61.0 °F 87% 29.89 in 10.0 mi Calm Calm - N/A   Clear
6:53 AM 66.0 °F - 61.0 °F 84% 29.88 in 10.0 mi Calm Calm - N/A   Clear
7:53 AM 71.1 °F - 63.0 °F 75% 29.90 in 10.0 mi South 11.5 mph 16.1 mph N/A   Clear
8:53 AM 75.0 °F - 64.9 °F 71% 29.92 in 10.0 mi SSW 12.7 mph - N/A   Clear
9:53 AM 75.0 °F - 64.9 °F 71% 29.93 in 10.0 mi SW 4.6 mph - N/A   Overcast
10:53 AM 79.0 °F - 66.0 °F 64% 29.92 in 10.0 mi South 8.1 mph - N/A   Partly Cloudy
11:53 AM 82.0 °F 83.8 °F 64.9 °F 56% 29.91 in 10.0 mi SSW 12.7 mph 17.3 mph N/A   Clear
12:53 PM 81.0 °F 82.5 °F 64.0 °F 56% 29.88 in 10.0 mi SSW 8.1 mph - N/A   Scattered Clouds
1:53 PM 82.9 °F 85.0 °F 66.0 °F 56% 29.86 in 10.0 mi WSW 11.5 mph - N/A   Partly Cloudy
2:53 PM 81.0 °F 82.5 °F 64.0 °F 56% 29.83 in 10.0 mi SSW 5.8 mph - N/A   Clear
3:53 PM 81.0 °F 82.5 °F 64.0 °F 56% 29.81 in 10.0 mi South 6.9 mph - N/A   Mostly Cloudy
4:53 PM 81.0 °F 81.6 °F 60.1 °F 49% 29.80 in 10.0 mi South 8.1 mph - N/A   Overcast
5:53 PM 75.0 °F - 64.0 °F 69% 29.81 in 9.0 mi South 11.5 mph - 0.00 in Rain Light Rain
6:40 PM 73.4 °F - 64.4 °F 73% 29.82 in 1.5 mi SSE 8.1 mph - 0.11 in Rain Heavy Rain
6:48 PM 73.4 °F - 64.4 °F 73% 29.82 in 1.0 mi SE 8.1 mph 19.6 mph 0.23 in Rain Heavy Rain
6:53 PM 75.0 °F - 63.0 °F 66% 29.81 in 1.5 mi ESE 5.8 mph 19.6 mph 0.24 in Rain Rain
6:56 PM 73.4 °F - 62.6 °F 69% 29.82 in 3.0 mi ESE 6.9 mph - 0.00 in Rain Light Rain
7:53 PM 72.0 °F - 66.0 °F 81% 29.81 in 10.0 mi Calm Calm - 0.02 in   Overcast
8:53 PM 69.1 °F - 64.0 °F 84% 29.83 in 10.0 mi South 6.9 mph - N/A   Overcast
9:48 PM 69.8 °F - 64.4 °F 83% 29.85 in 5.0 mi West 3.5 mph - 0.04 in Rain Light Rain
9:53 PM 70.0 °F - 64.9 °F 84% 29.84 in 6.0 mi West 4.6 mph - 0.04 in Rain Light Rain
10:31 PM 69.8 °F - 66.2 °F 88% 29.86 in 2.5 mi Calm Calm - 0.04 in Rain Rain
10:41 PM 69.8 °F - 66.2 °F 88% 29.86 in 5.0 mi Calm Calm - 0.05 in Rain Light Rain
10:53 PM 69.1 °F - 66.0 °F 90% 29.84 in 10.0 mi Calm Calm - 0.05 in   Overcast
11:53 PM 69.1 °F - 66.0 °F 90% 29.85 in 10.0 mi Calm Calm - N/A   Overcast